STARLINK-37720, 69129

Orbit data source: Space-Track

STARLINK-37720, 69129 is a payload satellite owned by SpaceX/Seattle (US) in SSO that was launched on Wed, 20 May 2026 UTC via an FALCON 9 launch vehicle from the Air Force Western Test Range (AFWTR). Payload-class satellites include a variety of spacecraft equipped with specific instruments for various scientific and technological missions. These include communications satellites like Starlink; space stations such as the ISS; scientific satellites like the Hubble; Earth observation satellites from companies like Planet Labs, Umbra, and HawkEye 360; GPS; miniature CubeSats for education and research; and military/defense satellites.

Loading next visibility...
Identifier
69129, 2026-110F
Orbit
SSO
Country
Flag of USUS
Related business
Manufacturer
SpaceX/Seattle
Mission
Operational spacecraft
Bus & Motor
STARLINK V2MO, Unknown motor
Mass
575 kg wet, ~530 kg dry
Launch date (UTC)
2026-05-20 (1 month ago)
Launch vehicle
FALCON 9
Launch site
Air Force Western Test Range (AFWTR)
Object type
Payload
Rocket body
Debris
Shape & HBR
Unknown shape, 14.5 m
Radar Cross Section
Large (>1 m²)

Expand to show TLE details & history
Last TLE update: 9 hours ago

TLE from 9 hours ago
0 STARLINK-37720
1 69129U 26110F   26171.45402985  .00039352  00000-0  72121-3 0  9999
2 69129  97.2866   7.7213 0001204 106.5303 253.6080 15.49204695  6108
Epoch: 2026-06-20T10:53Z
TLE epoch observation values (Epoch: 2026-06-20T10:53:48.179Z)
Latitude
-0.00005°
Longitude
-64.39786°
Altitude
422.416 km
Speed
7.658 km/s
True Right ascension
00h 30m 53s
True Declination
0° 00' 00"
Sunlit
Object was in daylight at epoch
Visualization orbit readout
Latitude
Unknown
Longitude
Unknown
Altitude
Unknown
Speed
Unknown
Apparent Right ascension
Unknown
Apparent Declination
Unknown
Sunlit
N/A
Visualization observer readout
Local Sidereal Time
07:12:16
Azimuth
Unknown
Elevation
Unknown
Doppler factor
Unknown
Orbital elements
Apogee altitude
416.791 km
Perigee altitude
415.155 km
Semi-major axis
6,794.11 km
Eccentricity
0.00012
Inclination
97.2866°
RAAN
7.7213°
Arg. of periapsis
106.5303°
True anomaly
253.59476°
Mean anomaly
253.608°
Eccentric anomaly
253.60138°
Mean motion
3.87565 °/min
Orbital period
92.89 mins
BSTAR
0.00072121
Loading maneuver chart data...
Computing Atmospheric mass density...
Loading historical data...
Loading historical data...
Loading historical data...
Loading historical data...
Loading historical data...
Loading historical data...
Loading historical data...

Documentation

Showing up to 5 results
|